This is the latest recevied weather packets stored in our database for station/object SV4JYD-13. If no packets are shown the sender has not sent any weather packets the latest 1 day(s).
| Time | Temp. | Humidity | Pressure | Rain* | Wind** | Luminosity | Snow |
|---|---|---|---|---|---|---|---|
| 1778021216 | 14.44° C | 81% | 1015 hPa | 0 mm | 0.45 m/s, 115° | - | - |
| 1778020316 | 15° C | 78% | 1015 hPa | 0 mm | 0.45 m/s, 115° | - | - |
| 1778019416 | 15° C | 80% | 1015 hPa | 0 mm | 0.45 m/s, 115° | - | - |
| 1778018515 | 15° C | 80% | 1015 hPa | 0 mm | 0.45 m/s, 115° | - | - |
| 1778017615 | 15.56° C | 80% | 1015 hPa | 0 mm | 0.45 m/s, 115° | - | - |
| 1778016715 | 15.56° C | 80% | 1015 hPa | 0 mm | 0.45 m/s, 115° | - | - |
| 1778015815 | 15.56° C | 81% | 1015 hPa | 0 mm | 0.45 m/s, 115° | - | - |
| 1778014914 | 15.56° C | 81% | 1015 hPa | 0 mm | 0.45 m/s, 115° | - | - |
| 1778014014 | 16.11° C | 78% | 1015 hPa | 0 mm | 0.45 m/s, 115° | - | - |
| 1778013114 | 16.11° C | 79% | 1015 hPa | 0 mm | 0.45 m/s, 115° | - | - |
| 1778012213 | 16.11° C | 81% | 1015 hPa | 0 mm | 0.45 m/s, 115° | - | - |
| 1778011313 | 17.22° C | 78% | 1015 hPa | 0 mm | 0.45 m/s, 115° | - | - |
| 1778010413 | 17.78° C | 73% | 1015 hPa | 0 mm | 0.45 m/s, 115° | - | - |
| 1778009511 | 17.78° C | 75% | 1015 hPa | 0 mm | 0.45 m/s, 115° | - | - |
| 1778008611 | 19.44° C | 74% | 1015 hPa | 0 mm | 0.45 m/s, 115° | - | - |
| 1778007711 | 19.44° C | 75% | 1015 hPa | 0 mm | 0.45 m/s, 115° | - | - |
| 1778006811 | 18.89° C | 77% | 1015 hPa | 0 mm | 0.45 m/s, 115° | - | - |
| 1778005910 | 19.44° C | 75% | 1015 hPa | 0 mm | 0.45 m/s, 115° | - | - |
| 1778005010 | 20° C | 71% | 1014 hPa | 0 mm | 0.45 m/s, 115° | - | - |
| 1778004110 | 20.56° C | 69% | 1015 hPa | 0 mm | 0.45 m/s, 115° | - | - |
| 1778003210 | 21.11° C | 53% | 1015 hPa | 0 mm | 0.45 m/s, 115° | - | - |
| 1778002309 | 21.67° C | 71% | 1014 hPa | 0 mm | 1.79 m/s, 129° | - | - |
| 1778001409 | 21.11° C | 10% | - | 0 mm | 1.79 m/s, 129° | - | - |
| 1778000509 | 21.67° C | 10% | - | 0 mm | 1.79 m/s, 129° | - | - |
| 1777999609 | 22.22° C | 10% | - | 0 mm | 1.79 m/s, 129° | - | - |
* Rain latest hour (hover to see other rain measurements)
** Current wind speed in m/s (hover to see current wind gust speed)